Anoka County, MN

12:44 AM CDT on August 21, 2017 (GMT -0500)
Anoka County / Blaine Airport

Weather History for KANE - August, 2012

Change the Weather History Date:

Friday, August 3, 2012

  Actual Average Record
Temperature  
Mean Temperature 78 °F -  
Max Temperature 89 °F 78 °F 91 °F (2010)
Min Temperature 66 °F 59 °F 51 °F (2013)
Cooling Degree Days 12    
Growing Degree Days 28 (Base 50)    
Moisture  
Dew Point 64 °F    
Average Humidity 70    
Maximum Humidity 94    
Minimum Humidity 38    
Precipitation  
Precipitation 0.55 in - - ()
Sea Level Pressure  
Sea Level Pressure 29.86 in    
Wind  
Wind Speed 3 mph (SE)    
Max Wind Speed 36 mph    
Max Gust Speed 59 mph    
Visibility 10 miles    
Events Rain    
Averages and records for this station are not official NWS values.
T = Trace of Precipitation, MM = Missing Value Source: NWS Daily Summary

Daily Weather History Graph

Daily Weather History Graph

Search for Another Location

Airport or City:

Trip Planner

Search our weather history database for the weather conditions in past years. The results will help you decide how hot, cold, wet, or windy it might be!

Date:

Astronomy

Aug. 03, 2012 Rise Set
Actual Time 6:00 AM CDT 8:36 PM CDT
Civil Twilight 5:27 AM CDT 9:09 PM CDT
Nautical Twilight 4:44 AM CDT 9:51 PM CDT
Astronomical Twilight 3:56 AM CDT 10:39 PM CDT
Moon 9:05 PM CDT (8/3) 7:52 AM CDT (8/3)
Length of Visible Light 15h 42m
Length of Day
14h 35m
Full, 97% of the Moon is Illuminated
Aug 3
Full
Aug 9
Last Quarter
Aug 17
New
Aug 24
First Quarter
Aug 31
Full

Hourly Weather History & Observations

Time (CDT) Temp. Heat Index Dew Point Humidity Pressure Visibility Wind Dir Wind Speed Gust Speed Precip Events Conditions
12:14 AM 73.4 °F - 66.2 °F 78% 29.89 in 10.0 mi Calm Calm - N/A   Clear
12:34 AM 71.6 °F - 64.4 °F 78% 29.89 in 10.0 mi Calm Calm - N/A   Clear
12:54 AM 69.8 °F - 64.4 °F 83% 29.89 in 10.0 mi Calm Calm - N/A   Clear
1:14 AM 71.6 °F - 64.4 °F 78% 29.89 in 10.0 mi Calm Calm - N/A   Clear
1:34 AM 69.8 °F - 64.4 °F 83% 29.89 in 10.0 mi Calm Calm - N/A   Clear
2:14 AM 69.8 °F - 64.4 °F 83% 29.88 in 10.0 mi Calm Calm - N/A   Clear
2:34 AM 69.8 °F - 64.4 °F 83% 29.89 in 10.0 mi East 3.5 mph - N/A   Clear
2:54 AM 69.8 °F - 64.4 °F 83% 29.88 in 10.0 mi Calm Calm - N/A   Clear
3:14 AM 68.0 °F - 64.4 °F 88% 29.88 in 10.0 mi Calm Calm - N/A   Clear
3:34 AM 68.0 °F - 64.4 °F 88% 29.88 in 10.0 mi Calm Calm - N/A   Clear
3:54 AM 69.8 °F - 64.4 °F 83% 29.88 in 10.0 mi Calm Calm - N/A   Clear
4:14 AM 69.8 °F - 64.4 °F 83% 29.88 in 10.0 mi Calm Calm - N/A   Clear
4:34 AM 68.0 °F - 62.6 °F 83% 29.88 in 10.0 mi Calm Calm - N/A   Clear
4:54 AM 66.2 °F - 62.6 °F 88% 29.88 in 10.0 mi Calm Calm - N/A   Clear
5:13 AM 66.2 °F - 62.6 °F 88% 29.88 in 10.0 mi Calm Calm - N/A   Clear
5:34 AM 68.0 °F - 62.6 °F 83% 29.89 in 10.0 mi Calm Calm - N/A   Clear
5:54 AM 66.2 °F - 62.6 °F 88% 29.89 in 10.0 mi Calm Calm - N/A   Clear
6:13 AM 66.2 °F - 62.6 °F 88% 29.89 in 10.0 mi Calm Calm - N/A   Clear
6:34 AM 66.2 °F - 62.6 °F 88% 29.89 in 10.0 mi Calm Calm - N/A   Clear
6:54 AM 68.0 °F - 64.4 °F 88% 29.89 in 10.0 mi Calm Calm - N/A   Clear
7:50 AM 73.4 °F - 64.4 °F 73% 29.88 in 10.0 mi SSE 6.9 mph - N/A   Mostly Cloudy
8:45 AM 75.2 °F - 62.6 °F 65% 29.90 in 10.0 mi East 4.6 mph - N/A   Mostly Cloudy
10:55 AM 78.8 °F - 68.0 °F 69% 29.91 in 10.0 mi NE 4.6 mph - N/A   Mostly Cloudy
11:45 AM 80.6 °F 82.7 °F 66.2 °F 61% 29.90 in 10.0 mi East 5.8 mph - N/A   Scattered Clouds
12:50 PM 84.2 °F 85.6 °F 64.4 °F 51% 29.89 in 10.0 mi ESE 10.4 mph - N/A   Scattered Clouds
1:45 PM 87.8 °F 87.6 °F 60.8 °F 40% 29.88 in 10.0 mi SE 12.7 mph - N/A   Partly Cloudy
2:45 PM 89.6 °F 90.1 °F 62.6 °F 40% 29.86 in 10.0 mi ESE 6.9 mph - N/A   Partly Cloudy
3:45 PM 89.6 °F 89.5 °F 60.8 °F 38% 29.84 in 10.0 mi ESE 12.7 mph - N/A   Partly Cloudy
4:55 PM 89.6 °F 89.5 °F 60.8 °F 38% 29.82 in 10.0 mi SE 11.5 mph - N/A   Partly Cloudy
5:45 PM 87.8 °F 89.4 °F 64.4 °F 46% 29.81 in 10.0 mi ESE 13.8 mph - N/A   Partly Cloudy
6:45 PM 87.8 °F 89.4 °F 64.4 °F 46% 29.79 in 10.0 mi ESE 9.2 mph - N/A   Partly Cloudy
7:45 PM 84.2 °F 86.6 °F 66.2 °F 55% 29.78 in 10.0 mi ESE 6.9 mph - N/A   Mostly Cloudy
8:45 PM 82.4 °F 84.6 °F 66.2 °F 58% 29.76 in 10.0 mi ESE 8.1 mph - N/A   Overcast
9:14 PM 82.4 °F 84.6 °F 66.2 °F 58% 29.77 in 10.0 mi SE 8.1 mph - N/A   Clear
9:33 PM 82.4 °F 84.6 °F 66.2 °F 58% 29.78 in 10.0 mi SE 5.8 mph - N/A   Clear
9:47 PM 82.4 °F 84.6 °F 66.2 °F 58% 29.78 in 10.0 mi SE 6.9 mph - N/A   Overcast
9:54 PM 82.4 °F 84.6 °F 66.2 °F 58% 29.77 in 10.0 mi SE 9.2 mph - N/A   Clear
10:14 PM 82.4 °F 84.6 °F 66.2 °F 58% 29.77 in 10.0 mi SE 12.7 mph - N/A   Clear
10:34 PM 82.4 °F 84.6 °F 66.2 °F 58% 29.77 in 10.0 mi SE 12.7 mph 19.6 mph N/A   Clear
10:54 PM 82.4 °F 85.4 °F 68.0 °F 62% 29.77 in 10.0 mi SE 11.5 mph 17.3 mph N/A   Clear
11:14 PM 82.4 °F 83.9 °F 64.4 °F 54% 29.88 in 10.0 mi West 35.7 mph 58.7 mph N/A   Mostly Cloudy
11:34 PM 66.2 °F - 64.4 °F 94% 29.89 in 7.0 mi WSW 18.4 mph 28.8 mph 0.44 in Rain Heavy Rain
11:54 PM 66.2 °F - 64.4 °F 94% 29.86 in 10.0 mi West 12.7 mph - 0.55 in Rain Light Rain